Terminal Aerodrome Forecast
Issued by NWS

Home | Current Version | Previous Version | Graphics & Text | Print | Product List | Glossary On
Versions: 1 2 3 4 5 6 7 8 9 10 11 12 13 14 15 16 17 18
000
FTUS42 KMHX 201600 AAA
TAFISO
TAF AMD
KISO 201604Z 2016/2112 20010G15KT P6SM SKC
     FM201900 21009KT P6SM SCT040
     FM210300 19003KT P6SM BKN040 BKN080
      AMD LTD TO CLD VIS AND WIND=

USA.gov is the U.S. government's official web portal to all federal, state and local government web resources and services.